#timestamp,LO_Frequency,Hit,StdDev 
1595872815.5,286047000.3,N
1595872835.4,286047000.0,N
1595872855.2,286047000.2,N
1595872875.0,286047000.1,N
1595872875.9,286047000.1,N
1595872895.8,286047001.0,N
1595872915.6,286047000.9,N
1595872935.4,286047001.0,N
1595872955.3,286047000.7,N
1595872975.1,286047000.5,N
1595872995.9,286047000.3,N
1595873015.7,286047000.6,N
1595873035.5,286047000.6,N
1595873055.4,286047000.8,N
1595873075.2,286047000.6,N
1595873095.1,286046998.1,N
1595873096.0,286046998.1,N
1595873115.8,286047000.7,N
1595873135.6,286047000.7,N
1595873155.5,286047000.1,N
1595873175.3,286047000.3,N
1595873195.1,286046999.7,N
1595873215.9,286047000.4,N
1595873235.7,286047000.5,N
1595873255.6,286047000.7,N
1595873275.4,286047000.4,N
1595873295.2,286046999.9,N
1595873315.1,286047000.5,N
1595873316.0,286047000.5,N
1595873335.8,286046999.9,N
1595873355.7,286046999.9,N
1595873375.5,286047000.9,N
1595873395.3,286047000.5,N
1595873415.2,286047001.1,N
1595873435.0,286047001.0,N
1595873435.9,286047001.0,N
1595873455.8,286047000.3,N
1595873475.6,286047000.6,N
1595873495.4,286047000.9,N
1595873515.3,286046999.7,N
1595873535.1,286047000.0,N
1595873555.8,286047000.2,N
1595873575.7,286047000.3,N
1595873595.5,286047000.1,N
1595873615.4,286046999.8,N
1595873635.2,286047000.1,N
1595873655.0,286046999.9,N
1595873655.9,286046999.9,N
1595873675.8,286047000.3,N
1595873695.6,286046999.7,N
1595873715.5,286047002.2,Y
1595873735.3,286047002.7,P
1595873755.1,286046999.7,N
1595873775.9,286047000.3,N
1595873795.7,286047001.6,N
1595873815.5,286047002.0,N
1595873835.4,286047002.7,N
1595873855.2,286047002.0,N
1595873875.1,286047001.3,N
1595873876.0,286047001.3,N
1595873895.8,286047002.2,N
1595873915.6,286047002.7,N
1595873935.5,286047000.0,N
1595873955.3,286047002.5,N
1595873975.1,286046999.7,N
1595873995.9,286047000.5,N
1595874015.7,286047000.9,N
1595874035.6,286047000.4,N
1595874055.4,286047001.0,N
1595874075.2,286046998.8,N
1595874095.1,286046998.9,N
1595874096.0,286046998.9,N
1595874115.8,286046996.6,N
1595874135.7,286046996.8,N
1595874155.5,286046996.5,N
1595874175.3,286046997.7,N
1595874195.2,286046997.6,N
1595874215.0,286046997.2,N
1595874215.9,286046997.2,N
1595874235.8,286046996.8,N
1595874255.6,286046996.6,N
1595874275.4,286046997.5,N
1595874295.3,286046995.6,N
1595874315.1,286046995.5,N
1595874335.9,286046998.0,N
1595874355.7,286046995.2,N
1595874375.5,286046995.2,N
1595874395.4,286046997.6,N
1595874415.2,286046995.2,N
1595874435.0,286046995.0,N
1595874435.9,286046995.0,N
1595874455.8,286046997.9,N
1595874475.6,286046995.4,N
1595874495.5,286046998.0,N
1595874515.3,286046996.2,N
1595874535.1,286046996.0,N
1595874555.9,286046995.4,N
1595874575.7,286046995.6,N
1595874595.6,286046995.6,Y
1595874615.4,286046998.3,P
1595874635.2,286047000.6,N
1595874655.1,286047001.9,N
1595874656.0,286047001.9,N
1595874675.8,286047000.5,N
1595874695.7,286047000.6,N
1595874715.5,286046998.5,N
1595874735.3,286047000.2,N
1595874755.2,286047000.5,N
1595874775.0,286046999.8,N
1595874775.9,286046999.8,N
1595874795.8,286047000.1,N
1595874815.6,286047002.1,N
1595874835.4,286047002.4,N
1595874855.3,286046999.8,N
1595874875.1,286047000.2,N
1595874895.9,286047000.6,N
1595874915.7,286046999.8,N
1595874935.5,286047002.7,N
1595874955.4,286047000.1,N
1595874975.2,286047002.2,N
1595874995.0,286047002.1,N
1595874995.9,286047002.1,N
1595875015.8,286047002.2,N
1595875035.6,286047002.1,N
1595875055.5,286047001.7,N
1595875075.3,286047001.3,N
1595875095.1,286047003.7,N
1595875115.9,286047003.3,N
1595875135.7,286047003.9,N
1595875155.5,286047002.9,N
1595875175.4,286047006.0,Y
1595875195.2,286047001.4,P
1595875215.1,286047001.7,P
1595875216.0,286047001.7,P
1595875235.8,286047004.4,Y
1595875255.6,286047000.0,P
1595875275.5,286047002.4,P
1595875295.3,286046999.9,N
1595875315.2,286047001.0,N
1595875335.0,286047001.1,N
1595875335.9,286047001.1,N
1595875355.7,286047000.9,N
1595875375.6,286047000.0,N
1595875395.4,286046999.9,N
1595875415.3,286047000.0,N
1595875435.1,286046999.9,N
1595875436.0,286046999.9,N
1595875455.8,286047001.0,N
1595875475.7,286047000.8,N
1595875495.5,286047000.8,N
1595875515.4,286047001.2,N
1595875535.2,286046999.9,N
1595875555.0,286046998.1,N
1595875555.9,286046998.1,N
1595875575.8,286047000.6,N
1595875595.6,286047000.5,N
1595875615.4,286047000.4,N
1595875635.3,286047000.6,N
1595875655.1,286047000.5,N
1595875675.9,286047000.7,N
1595875695.7,286047000.6,N
1595875715.5,286047000.6,N
1595875735.4,286046999.9,N
1595875755.2,286047000.7,N
1595875775.1,286047001.2,N
1595875776.0,286047001.2,N
1595875795.8,286047000.9,N
1595875815.6,286047001.2,N
1595875835.5,286047000.9,N
1595875855.3,286046998.1,N
1595875875.1,286047000.0,N
1595875895.9,286046999.9,N
1595875915.7,286047000.9,N
1595875935.6,286046999.9,N
1595875955.4,286047000.0,N
1595875975.2,286047000.5,N
1595875995.1,286047000.6,N
1595875996.0,286047000.6,N
1595876015.8,286047000.9,N
1595876035.7,286047000.5,N
1595876055.5,286047002.7,Y
1595876075.3,286047000.6,P
1595876095.2,286047000.1,N
1595876115.0,286047000.6,N
1595876115.9,286047000.6,N
1595876135.8,286047000.6,N
1595876155.6,286046999.9,N
1595876175.4,286047002.8,Y
1595876195.3,286047000.0,P
1595876215.1,286046999.9,N
1595876235.9,286046999.9,N
1595876255.7,286047000.6,N
1595876275.5,286047000.9,Y
1595876295.4,286047000.3,P
1595876315.2,286047000.5,P
1595876335.0,286047000.0,N
1595876335.9,286047000.0,N
1595876355.8,286046999.7,N
1595876375.6,286047000.0,N
1595876395.5,286047000.5,N
